Location: Unspecified
(0.0000°N, 0.0000°E)
Time: 03:52:10
(UTC+00:00)

Vanguard 2 Rocket - Visible Passes

Search period start: 07 February 2016 00:00
Search period end: 17 February 2016 00:00
Orbit: 554 x 3329 km, 32.9° (Epoch: 06 February)

Date Brightness Start Highest point End Pass type
(mag) Time Alt. Az. Time Alt. Az. Time Alt. Az.
13 Feb 9.8 21:35:36 10° SSW 21:36:08 11° SSW 21:36:08 11° SSW visible
14 Feb 9.3 20:35:50 10° SSW 20:40:21 15° SSE 20:40:21 15° SSE visible
15 Feb 9.5 19:35:25 10° SSW 19:39:51 13° S 19:43:28 10° SE visible
15 Feb 9.8 21:49:27 10° SW 21:50:25 13° SW 21:50:25 13° SW visible
16 Feb 9.9 18:33:46 10° SSW 18:38:41 13° S 18:42:46 10° SSE visible
16 Feb 9.0 20:49:14 10° SSW 20:54:40 24° S 20:54:40 24° S visible
